Printer-friendly version

IAU Minor Planet Center

Minor Planet Center

MPEC 2004-N32 : COMET C/2004 F4 (BRADFIELD)

The following Minor Planet Electronic Circular may be linked-to from your own Web pages, but must not otherwise be redistributed electronically.


Read MPEC 2004-N31 Read MPEC 2004-N33


M.P.E.C. 2004-N32                                Issued 2004 July 12, 18:20 UT

     The Minor Planet Electronic Circulars contain information on unusual
         minor planets and routine data on comets.  They are published
   on behalf of Commission 20 of the International Astronomical Union by the
          Minor Planet Center, Smithsonian Astrophysical Observatory,
                          Cambridge, MA 02138, U.S.A.

         Supported in part by the Steven and Michele Kirsch Foundation
             Prepared using the Tamkin Foundation Computer Network

                              MPC@CFA.HARVARD.EDU
          URL http://cfa-www.harvard.edu/iau/mpc.html  ISSN 1523-6714

                          COMET C/2004 F4 (BRADFIELD)

Observations:
    CK04F040  C2004 05 23.75354 01 14 19.39 +47 29 13.5          11.8 T EN032D74
    CK04F040  C2004 05 23.76387 01 14 19.96 +47 29 28.8          12.2 T EN032D74
    CK04F040  C2004 06 03.72830 01 22 43.95 +51 34 43.7                 EN032355
    CK04F040  C2004 06 03.75093 01 22 44.78 +51 35 12.1          14.1 T EN032355
    CK04F040  C2004 06 03.75304 01 22 44.83 +51 35 14.8                 EN032355
    CK04F040  C2004 06 13.76586 01 28 00.76 +54 49 35.1                 EN032D74
    CK04F040  C2004 06 13.77118 01 28 00.91 +54 49 47.9                 EN032D74
    CK04F040  C2004 07 07.29747 01 25 37.51 +61 23 34.7          18.3 T EN032785
    CK04F040  C2004 07 07.30486 01 25 36.89 +61 23 39.9          18.2 T EN032785

Observer details:
355 Hadano.  Observer A. Asami.  0.28-m f/5.0 reflector + CCD.
785 Fitz-Randolph Observatory, Princeton.  Observer J. Maffei.  0.91-m f/13.6
    Cassegrain + CCD.
D74 Nakagawa.  Observers H. Hori, H. Maeno.  1.13-m f/6.75 reflector + CCD.

Orbital elements:
    C/2004 F4 (Bradfield)
Epoch 2004 Apr. 25.0 TT = JDT 2453120.5
T 2004 Apr. 17.09009 TT                                 MPC
q   0.1682691            (2000.0)            P               Q
z  +0.0042248      Peri.  332.78609     -0.79295297     -0.06301319
 +/-0.0000191      Node   222.77771     -0.25279401     -0.87096027
e   0.9992891      Incl.   63.16462     -0.55436520     +0.48729617
Residuals in seconds of arc
040423 349 (3.0-  0.3+)   040515 J87  0.3-  0.1-    040601 349  0.2-  0.2+
040423 349  0.8-  0.0     040515 213  0.3+  0.6-    040601 349  0.5-  0.3-
040423 349 (2.3-  0.2+)   040515 213  0.2+  0.5-    040602 A32  0.6+  1.9+
040423 349 (3.1-  1.1+)   040515 213  0.2+  0.3-    040603 349  0.4-  0.1-
040423 349 (2.3-  0.8+)   040516 J76  0.9+  0.5-    040603 349  0.3-  0.0
040424 204  0.7+  0.2-    040516 A03  0.2+  0.4-    040603 349  0.1-  0.1-
040424 204  1.3+  0.0     040516 A03  0.4+  0.3-    040603 349  0.3-  0.1-
040424 204  1.6+  0.7-    040516 A03  0.7+  0.2-    040603 355  0.3-  0.2-
040424 213  0.5-  0.2-    040516 J76  0.3+  0.4-    040603 355  0.8-  0.2-
040424 213 (3.3-  0.5+)   040516 J76  0.3+  0.5-    040603 355  1.1-  0.1-
040424 349  0.4-  0.1-    040517 945  0.1+  1.9+    040604 349  0.2-  0.4-
040424 349  0.1-  0.3+    040517 945  0.2+  1.8+    040604 349  0.2-  0.4-
040424 349  0.1+  0.1+    040517 945  0.3+  1.8+    040604 349  0.1-  0.5-
040424 349  0.1+  0.0     040517 945  0.3+  1.8+    040604 349  0.1-  0.0
040424 D70  0.2+  1.0+    040517 945  0.5+  1.9+    040606 170 (2.7-  1.5+)
040424 D70 (1.9+  2.7+)   040518 557  0.3+  0.4-    040607 J93  0.6+  0.3+
040424 D70  0.1+  1.1-    040518 557  0.3+  0.5-    040607 J93  1.3+  1.0+
040425 204 (0.7-  2.7+)   040518 557  0.3+  0.5-    040607 J93  0.7+  0.9+
040425 204  0.5+  0.0     040518 138  0.0   0.4-    040612 A32  0.6-  0.9+
040425 204  0.2+  0.5-    040518 557  0.4+  0.6-    040613 213  1.8-  0.3-
040425 204  0.0   0.5-    040518 557  0.3+  0.5-    040613 349  0.0   0.1+
040425 J76 (3.4-  1.4+)   040518 557  0.1+  0.5-    040613 349  0.2-  0.2+
040425 J76 (3.0-  0.8+)   040518 138  0.9-  0.1-    040613 349  0.2-  0.1-
040425 J76 (0.5-  2.3+)   040518 138  0.3-  0.1-    040613 D74  0.6-  0.8+
040425 349  0.5-  0.1+    040520 945  0.9+  1.1+    040613 D74 (0.3-  7.6+)
040425 349  0.7-  0.4+    040520 945  0.8+  1.0+    040613 A54  0.6+  0.5+
040425 349  0.5-  0.5+    040520 945  0.9+  0.9+    040613 A54 (2.2-  2.2+)
040425 349  0.5-  0.0     040520 945  0.7+  1.0+    040614 349  0.3-  0.3-
040428 235  0.6+  1.2-    040520 945  0.5+  1.1+    040614 349  0.3-  0.4-
040428 355  0.0   0.2+    040523 J95  0.8-  0.9+    040614 349  0.6-  0.2-
040428 355  0.2+  0.6+    040523 J95  0.3-  0.3-    040616 D83  0.0   0.1-
040428 355  0.1-  0.3+    040523 J95  0.8-  0.4-    040616 D83  0.7-  0.3+
040428 349  0.3-  0.2+    040523 D74  0.9+  0.1+    040616 D83  0.0   0.3-
040428 340  0.1-  0.0     040523 D74  1.4+  0.1-    040617 J93 (0.1-  3.6-)
040428 349  0.4-  0.1-    040524 349  0.1+  0.4-    040617 J93 (2.6-  0.6-)
040428 349  0.7-  0.0     040524 349  0.2-  0.5-    040617 J93  0.4-  1.2+
040428 D70  0.9-  0.1+    040524 349  0.2-  0.3-    040618 461  0.0   0.1+
040428 349  0.7-  0.4+    040524 372  1.1+  0.0     040618 461  0.4+  0.0
040428 340  0.8+  0.3+    040525 349  0.4-  0.6-    040618 461  0.2+  0.0
040428 340  0.7+  0.4-    040525 349  0.1+  0.0     040622 461  0.3-  0.4+
040428 D70  0.2-  0.8-    040525 349  0.1-  0.2-    040622 461  0.4+  0.1+
040428 D70  0.1-  0.5-    040525 379  0.9+  0.7+    040622 461  0.4-  0.2+
040428 D70  0.2-  0.6+    040525 379  1.0+  0.0     040622 461  0.1+  0.0
040429 355  0.7-  0.1+    040525 360  0.5+  0.4-    040622 461  0.2-  0.0
040429 355  0.2+  0.5+    040525 360  0.6+  0.5-    040624 704  0.2-  0.7-
040429 355  0.5-  1.0+    040525 360  0.3+  0.6-    040624 704  0.1+  0.8-
040429 349  0.4-  0.1+    040528 349  0.1-  0.9-    040624 704  0.1-  0.3-
040429 349  0.5-  0.3+    040528 349  0.5-  0.7-    040624 704  0.5-  0.0
040429 349  0.6-  0.3+    040528 349  0.5-  0.7-    040626 A18  0.2-  0.1-
040429 349  0.6-  0.3+    040528 349  0.1-  0.4-    040626 213  0.5+  1.5-
040510 349  0.4+  0.3-    040529 048  0.3-  0.9-    040626 213  1.4+  1.9-
040510 349  0.1+  0.1-    040529 048  0.1+  0.8-    040626 A46  0.3+  0.7+
040510 349  0.3+  0.3-    040529 A32  0.1-  0.1-    040626 A46  0.0   1.1+
040510 349  0.4+  0.3-    040529 048  0.0   0.4-    040626 A46 (0.8-  2.2+)
040511 379  0.1+  0.1-    040529 048  0.3-  0.1+    040626 A46 (0.6-  2.2+)
040511 379  0.7+  0.5+    040529 048  0.6-  0.1+    040626 A46  0.6-  1.6+
040511 379  0.0   0.8+    040530 048  0.6-  0.2-    040626 A46 (1.4-  2.6+)
040512 557  0.4+  0.8-    040530 048  0.2-  0.0     040627 461  0.4+  0.2-
040512 557  0.3+  0.5-    040530 048  0.2-  0.1-    040627 461  0.5+  0.0
040512 557  0.5+  0.7-    040530 048  0.7-  0.1-    040627 461  0.3+  0.2+
040512 557  0.6+  0.7-    040530 048  0.5-  0.6+    040627 461  0.2+  0.3-
040512 557  0.4+  0.6-    040530 J76  0.2-  0.5+    040627 461  0.1+  0.1-
040512 557  0.3+  0.5-    040530 J76  0.1-  0.5+    040627 461  0.1+  0.1+
040514 349  0.1-  0.4-    040530 J76  0.5-  0.6-    040629 A32 (0.6+  2.1-)
040514 349  0.2-  0.2-    040531 945  0.8-  0.3-    040629 A32  0.3+  0.5-
040514 349  0.0   0.1-    040531 945  0.5-  0.1-    040630 360  0.9+  0.2+
040514 349  0.2-  0.2-    040531 945  0.2+  0.0     040630 360  0.2+  0.2+
040514 372  0.7+  0.3+    040531 945  0.8+  0.2+    040630 360  0.1+  0.2+
040515 J87  0.0   0.1-    040601 349  0.4-  0.3-    040707 785  1.5+  0.8+
040515 J87  0.1-  0.7-    040601 349  0.1-  0.1+    040707 785  0.7-  0.8-

     The "original" and "future" barycentric values of 1/a are +0.005164
and +0.004248 (+/- 0.000019) AU^-1, respectively.

Brian G. Marsden             (C) Copyright 2004 MPC           M.P.E.C. 2004-N32

Read MPEC 2004-N31 Read MPEC 2004-N33


Our Web policy. Index to the CBAT/MPC/ICQ pages.


Valid HTML 4.01!